Location: ??????
(38.0677°N, 22.9870°E)
Time: 15:39:55
(UTC+00:00)

Envisat - Pass Details

Date: 23 May 2024
Orbit: 762 x 764 km, 98.3° (Epoch: 23 June)

Event Time Altitude Azimuth Distance (km) Brightness Sun altitude
Rises 01:33:48 0° 15° (NNE) 3,234 7.3 -16.4°
Reaches altitude 10° 01:36:07 10° 18° (NNE) 2,304 6.4 -16.1°
Maximum altitude 01:41:11 68° 102° (ESE) 819 3.2 -15.4°
Enters shadow 01:45:50 12° 184° (S) 2,142 4.9 -14.7°
